Regional Weather Roundup
Issued by NWS

Home | Current Version | Previous Version | Text Only | Print | Product List | Glossary On
Versions: 1 2 3 4 5 6 7 8 9 10 11 12 13 14 15 16 17 18 19 20 21 22 23 24 25 26 27 28 29 30 31 32 33 34 35 36 37 38 39 40 41 42 43 44 45 46 47 48 49 50
000
ASUS45 KBOU 050607
RWRCO

WEATHER ROUNDUP FOR COLORADO
NATIONAL WEATHER SERVICE DENVER/BOULDER CO
1100 PM MST WED MAR 04 2015

NOTE: "FAIR" INDICATES FEW OR NO CLOUDS BELOW 12000 FEET WITH NO
SIGNIFICANT WEATHER AND/OR OBSTRUCTIONS TO VISIBILITY.

COZ001>005-013-030-031-050700-
...NORTHWEST COLORADO...

CITY           SKY/WX    TMP DP  RH WIND       PRES   REMARKS
CRAIG          PTCLDY     7   1  76 CALM      30.29R
HAYDEN         PTCLDY    10   0  61 E14       30.26R WCI  -5
MEEKER         CLEAR     14   3  61 E13       30.29R WCI   0
MOUNT WERNER   NOT AVBL
STEAMBOAT SPGS PTCLDY     5  -3  70 CALM      30.27R
WALDEN         PTCLDY    -4 -11  71 SE9       30.17R WCI -20
$$

COZ006>008-011-050700-
...WEST CENTRAL VALLEYS...

CITY           SKY/WX    TMP DP  RH WIND       PRES   REMARKS
GRAND JUNCTION CLEAR     27  12  53 E3        30.30R
MONTROSE       PTCLDY    25  15  66 S7        30.32R WCI  17
EAGLE          CLEAR     10   3  72 CALM      30.34R
RIFLE          PTCLDY    21   8  57 E6        30.33R WCI  13
DELTA          PTCLDY    29  13  52 E8        30.32R WCI  21
NUCLA          PTCLDY    27  18  69 E7        30.32R WCI  19
$$

COZ017>023-064>068-050700-
...SOUTHWEST COLORADO...

CITY           SKY/WX    TMP DP  RH WIND       PRES   REMARKS
DURANGO        PTCLDY    22   5  48 W5        30.21R WCI  16
CORTEZ         CLEAR     23  14  68 NE9       30.27R WCI  13
PAGOSA SPRINGS PTCLDY     9   1  69 CALM      30.21R
TELLURIDE      PTCLDY    11   3  69 SE6       30.23R WCI   2
WOLF CREEK PAS MOCLDY     1   0  92 N12G17    30.13R WCI -15
$$

COZ009-010-012-014-032>034-037-058>063-050700-
...CENTRAL COLORADO...

CITY           SKY/WX    TMP DP  RH WIND       PRES   REMARKS
ASPEN          PTCLDY     4  -4  69 S9        30.26R WCI -10
BUENA VISTA    PTCLDY    13  -3  49 NW14G22   30.19R WCI  -2
COPPER MTN     NOT AVBL
BERTHOUD PASS  FAIR      -8 -15  71 N15G36    29.99R WCI -29
COTTONWOOD PAS PTCLDY    12 -13  31 NW12G20   30.10S WCI  -2
GUNNISON       PTCLDY     9  -2  61 CALM      30.28R
KREMMLING      PTCLDY     5  -2  72 E3        30.27R
LEADVILLE      PTCLDY    -5 -11  75 NE9       30.14R WCI -22
SALIDA         PTCLDY    14   5  69 CALM      30.27S
SUNLIGHT       PTCLDY     9   1  72 CALM        N/A
WILKERSON PASS PTCLDY     1 -17  42 NW13G20   30.04R WCI -16
$$

COZ069>075-050700-
...SAN LUIS VALLEY/SANGRE DE CRISTO MOUNTAINS...

CITY           SKY/WX    TMP DP  RH WIND       PRES   REMARKS
ALAMOSA        CLEAR     17   8  67 W8        30.20R WCI   7
LA VETA PASS   PTCLDY     5   0  78 MISG      30.09S
SAGUACHE       PTCLDY    19   0  42 NW14      30.18R WCI   6
$$

COZ035-036-038>040-050700-
...NORTHERN COLORADO FRONT RANGE...

CITY           SKY/WX    TMP DP  RH WIND       PRES   REMARKS
DENVER INTL AP CLEAR     12   4  70 S15       30.20S WCI  -4
DMNS CITY PARK   N/A     11   6  79 SE5       30.21F WCI   3
AURORA         PTCLDY     8   1  75 S10       30.20S WCI  -7
FRONT RANGE AP CLEAR      9   3  78 S14       30.20F WCI  -8
ERIE MUNI ARPT CLEAR     11   7  84 CALM      30.21F
BOULDER MUN AP CLEAR     12   7  79 CALM      30.20F
CENTENNIAL     PTCLDY    10   3  73 S9        30.19S WCI  -3
BROOMFIELD     CLEAR     12   5  73 SW3       30.19S
FORT COLLINS   CLEAR      9   3  78 SW6       30.22S WCI  -1
LONGMONT       CLEAR      7   2  79 W3        30.24F
$$

COZ041-046-047-076>085-087-088-050700-
...PIKES PEAK/PALMER DIVIDE AND SOUTHERN FOOTHILLS...

CITY           SKY/WX    TMP DP  RH WIND       PRES   REMARKS
COLO. SPRINGS  LGT SNOW  10   7  87 S3        30.24S VSB 3/4
A. F. ACADEMY  CLOUDY     9   5  85 S2        30.20S
ELLICOTT       NOT AVBL
FALCON         LGT SNOW   5   2  88 W7        30.19F WCI  -7
FORT CARSON    FLURRIES   4   1  86 SW5       30.24S WCI  -5
LIMON          PTCLDY    -9 -13  83 N9        30.24F WCI -26
MONUMENT HILL  PTCLDY     3   0  85 SW13      30.14F WCI -14
TRINIDAD       CLOUDY     9   6  88 W5        30.27S WCI   1
$$

COZ042>045-048>051-090-091-050700-
...NORTHEAST COLORADO...

CITY           SKY/WX    TMP DP  RH WIND       PRES   REMARKS
GREELEY ARPT   CLEAR      7  -6  56 CALM      30.23S
AKRON          CLEAR     12   6  77 SW12      30.24S WCI  -2
BURLINGTON     CLEAR     15   7  70 W8        30.28F WCI   4
WRAY           PTCLDY    15  10  80 SW8       30.30S WCI   5
STERLING       CLEAR     12   9  85 S5        30.27S WCI   4
HOLYOKE        NOT AVBL
FORT MORGAN    CLEAR     10   6  82 W6        30.26S WCI   0
$$

COZ086-089-092>099-050700-
...SOUTHEAST COLORADO...

CITY           SKY/WX    TMP DP  RH WIND       PRES   REMARKS
PUEBLO         PTCLDY     8   5  87 W3        30.32S
LA JUNTA       CLEAR     14   9  80 SW13      30.34S WCI   0
LAMAR          CLEAR     15  12  88 SW6       30.35S WCI   6
SPRINGFIELD      N/A      9   4  80 W8        30.33R WCI  -3
$$


USA.gov is the U.S. government's official web portal to all federal, state and local government web resources and services.